GTI1269 RJAA-RCTP

Flight info

Callsign GTI1269
Flight time N/A
Altitude 32000
Route PIGOK Y50 IGMON A1 DRAKE DRAKE1A
Aircraft B77L/H-SDE1E2E3FGHIJ2J3J4J5M1RWXY/LB1D1

Departure

Time N/A
Airport Narita International Airport (RJAA)

Arrival

Time 2026-05-03 21:25
Airport Taiwan Taoyuan International Airport (RCTP)
Time Latitude Longitude Altitude Speed Heading
2026-05-03 20:15 29.28128 127.02286 32027 ft 410 kts 235°
2026-05-03 20:15 29.24563 126.97174 32021 ft 407 kts 236°
2026-05-03 20:16 29.20998 126.92065 32019 ft 409 kts 235°
2026-05-03 20:16 29.17454 126.86995 32025 ft 408 kts 235°
2026-05-03 20:17 29.13899 126.81916 32022 ft 408 kts 236°
2026-05-03 20:17 29.10346 126.76843 32024 ft 410 kts 236°
2026-05-03 20:18 29.06767 126.71742 32026 ft 411 kts 236°
2026-05-03 20:18 29.03187 126.66647 32017 ft 407 kts 236°
2026-05-03 20:19 28.99630 126.61586 32018 ft 412 kts 236°
2026-05-03 20:19 28.96027 126.56496 32014 ft 410 kts 235°
2026-05-03 20:20 28.92336 126.51524 32018 ft 410 kts 235°
2026-05-03 20:20 28.88663 126.46584 32018 ft 408 kts 235°
2026-05-03 20:21 28.84971 126.41615 32024 ft 410 kts 234°
2026-05-03 20:21 28.81302 126.36679 32019 ft 408 kts 235°
2026-05-03 20:22 28.77627 126.31740 32034 ft 410 kts 235°
2026-05-03 20:22 28.73935 126.26784 32044 ft 408 kts 234°
2026-05-03 20:23 28.70261 126.21856 32038 ft 410 kts 234°
2026-05-03 20:23 28.66560 126.16898 32034 ft 408 kts 234°
2026-05-03 20:24 28.62882 126.11960 32040 ft 407 kts 235°
2026-05-03 20:24 28.59329 126.06928 32035 ft 409 kts 236°
2026-05-03 20:25 28.55773 126.01894 32031 ft 409 kts 236°
2026-05-03 20:25 28.52216 125.96874 32030 ft 407 kts 236°
2026-05-03 20:26 28.48653 125.91856 32031 ft 410 kts 236°
2026-05-03 20:26 28.45060 125.86802 32034 ft 410 kts 236°
2026-05-03 20:27 28.41476 125.81770 32029 ft 412 kts 236°
2026-05-03 20:27 28.37879 125.76726 32026 ft 409 kts 236°
2026-05-03 20:28 28.34270 125.71671 32025 ft 409 kts 236°
2026-05-03 20:28 28.30679 125.66647 32031 ft 410 kts 236°
2026-05-03 20:29 28.27080 125.61619 32033 ft 410 kts 236°
2026-05-03 20:29 28.23448 125.56548 32031 ft 413 kts 235°
2026-05-03 20:30 28.19838 125.51517 32037 ft 413 kts 236°
2026-05-03 20:30 28.16206 125.46461 32026 ft 412 kts 236°
2026-05-03 20:31 28.12563 125.41393 32031 ft 415 kts 236°
2026-05-03 20:31 28.08924 125.36340 32031 ft 414 kts 236°
2026-05-03 20:32 28.05265 125.31264 32047 ft 415 kts 235°
2026-05-03 20:32 28.01594 125.26176 32048 ft 416 kts 235°
2026-05-03 20:33 27.97924 125.21096 32050 ft 417 kts 236°
2026-05-03 20:33 27.94263 125.16036 32048 ft 416 kts 235°
2026-05-03 20:34 27.90581 125.10950 32050 ft 418 kts 235°
2026-05-03 20:34 27.86914 125.05894 32045 ft 417 kts 235°
2026-05-03 20:35 27.83246 125.00841 32052 ft 418 kts 236°
2026-05-03 20:35 27.79562 124.95773 32052 ft 417 kts 235°
2026-05-03 20:36 27.75847 124.90668 32050 ft 415 kts 236°
2026-05-03 20:36 27.72168 124.85617 32052 ft 418 kts 236°
2026-05-03 20:37 27.68461 124.80535 32051 ft 416 kts 235°
2026-05-03 20:37 27.64786 124.75504 32051 ft 416 kts 235°
2026-05-03 20:38 27.61086 124.70441 32052 ft 417 kts 236°
2026-05-03 20:38 27.57410 124.65412 32054 ft 415 kts 235°
2026-05-03 20:39 27.53726 124.60376 32049 ft 416 kts 235°
2026-05-03 20:39 27.50023 124.55320 32055 ft 416 kts 236°
2026-05-03 20:40 27.46342 124.50301 32053 ft 418 kts 235°
2026-05-03 20:40 27.42645 124.45266 32053 ft 416 kts 235°
2026-05-03 20:41 27.38954 124.40244 32054 ft 417 kts 235°
2026-05-03 20:41 27.35239 124.35195 32052 ft 417 kts 235°
2026-05-03 20:42 27.31510 124.30135 32074 ft 418 kts 235°
2026-05-03 20:42 27.27812 124.25121 32071 ft 419 kts 234°
2026-05-03 20:43 27.24100 124.20096 32070 ft 417 kts 235°
2026-05-03 20:43 27.20377 124.15060 32073 ft 417 kts 234°
2026-05-03 20:44 27.16632 124.09999 32065 ft 421 kts 234°
2026-05-03 20:44 27.12906 124.04973 32068 ft 415 kts 234°
2026-05-03 20:45 27.09182 123.99950 32070 ft 422 kts 234°
2026-05-03 20:45 27.05398 123.94910 32069 ft 421 kts 234°
2026-05-03 20:46 27.01618 123.89893 32069 ft 419 kts 234°
2026-05-03 20:46 26.97848 123.84890 32067 ft 421 kts 234°
2026-05-03 20:47 26.94082 123.79900 32070 ft 420 kts 234°
2026-05-03 20:47 26.90306 123.74900 32061 ft 418 kts 234°
2026-05-03 20:48 26.86552 123.69936 32064 ft 420 kts 234°
2026-05-03 20:48 26.82750 123.64912 32062 ft 420 kts 234°
2026-05-03 20:49 26.78990 123.59951 32060 ft 419 kts 234°
2026-05-03 20:49 26.75211 123.54968 32060 ft 420 kts 234°
2026-05-03 20:50 26.71435 123.49998 32056 ft 420 kts 234°
2026-05-03 20:50 26.67634 123.44998 32056 ft 421 kts 234°
2026-05-03 20:51 26.63851 123.40028 32047 ft 423 kts 234°
2026-05-03 20:51 26.60055 123.35050 32053 ft 420 kts 234°
2026-05-03 20:52 26.56247 123.30058 32067 ft 422 kts 234°
2026-05-03 20:52 26.52430 123.25063 32066 ft 421 kts 234°
2026-05-03 20:53 26.48592 123.20046 32065 ft 422 kts 234°
2026-05-03 20:53 26.44738 123.15011 32062 ft 422 kts 233°
2026-05-03 20:54 26.40911 123.10019 32063 ft 422 kts 234°
2026-05-03 20:54 26.35157 123.02523 32055 ft 422 kts 234°
2026-05-03 20:55 26.31325 122.97538 32049 ft 424 kts 233°
2026-05-03 20:55 26.27457 122.92515 32056 ft 424 kts 233°
2026-05-03 20:56 26.23606 122.87517 32054 ft 425 kts 233°
2026-05-03 20:56 26.19699 122.82453 32049 ft 424 kts 233°
2026-05-03 20:57 26.15841 122.77460 32055 ft 426 kts 233°
2026-05-03 20:57 26.11975 122.72461 32051 ft 424 kts 233°
2026-05-03 20:58 26.08113 122.67471 32043 ft 430 kts 233°
2026-05-03 20:58 26.04237 122.62471 32047 ft 424 kts 233°
2026-05-03 20:59 26.00335 122.57441 32043 ft 429 kts 233°
2026-05-03 20:59 25.96461 122.52454 32045 ft 426 kts 233°
2026-05-03 21:00 25.93861 122.49111 32038 ft 424 kts 233°
2026-05-03 21:00 25.88677 122.42445 32047 ft 427 kts 233°
2026-05-03 21:01 25.84808 122.37478 32038 ft 428 kts 233°
2026-05-03 21:01 25.80959 122.32543 31247 ft 421 kts 233°
2026-05-03 21:02 25.79040 122.30084 30341 ft 422 kts 233°
2026-05-03 21:02 25.77137 122.27650 30026 ft 410 kts 233°
2026-05-03 21:02 25.75305 122.25309 29659 ft 401 kts 233°
2026-05-03 21:02 25.73472 122.22963 29217 ft 411 kts 233°
2026-05-03 21:03 25.71566 122.20519 28719 ft 420 kts 233°
2026-05-03 21:03 25.69665 122.18089 28212 ft 417 kts 233°
2026-05-03 21:03 25.67768 122.15665 27712 ft 410 kts 232°
2026-05-03 21:03 25.65918 122.13306 27228 ft 404 kts 232°
2026-05-03 21:04 25.64092 122.10977 26719 ft 401 kts 233°
2026-05-03 21:04 25.62445 122.08516 26255 ft 399 kts 241°
2026-05-03 21:04 25.61240 122.05735 25761 ft 399 kts 251°
2026-05-03 21:04 25.60415 122.02844 25212 ft 396 kts 254°
2026-05-03 21:05 25.59642 121.99910 24654 ft 392 kts 254°
2026-05-03 21:05 25.58896 121.97048 24126 ft 388 kts 253°
2026-05-03 21:05 25.58160 121.94209 23621 ft 384 kts 254°
2026-05-03 21:05 25.57432 121.91388 23120 ft 383 kts 254°
2026-05-03 21:06 25.56704 121.88563 22608 ft 381 kts 254°
2026-05-03 21:06 25.55977 121.85735 22105 ft 379 kts 254°
2026-05-03 21:06 25.55265 121.82960 21610 ft 376 kts 254°
2026-05-03 21:06 25.54555 121.80190 21107 ft 373 kts 254°
2026-05-03 21:07 25.53844 121.77425 20599 ft 369 kts 254°
2026-05-03 21:07 25.53153 121.74736 20103 ft 364 kts 254°
2026-05-03 21:07 25.52459 121.72041 19610 ft 360 kts 254°
2026-05-03 21:07 25.51780 121.69401 19126 ft 357 kts 254°
2026-05-03 21:08 25.51105 121.66782 18650 ft 356 kts 254°
2026-05-03 21:08 25.50433 121.64169 18168 ft 355 kts 254°
2026-05-03 21:08 25.49754 121.61540 17695 ft 352 kts 255°
2026-05-03 21:08 25.49045 121.58984 17208 ft 350 kts 249°
2026-05-03 21:09 25.47918 121.56602 16696 ft 348 kts 238°
2026-05-03 21:09 25.46411 121.54514 16230 ft 344 kts 233°
2026-05-03 21:09 25.44838 121.52517 15823 ft 343 kts 232°
2026-05-03 21:09 25.43274 121.50532 15383 ft 343 kts 232°
2026-05-03 21:10 25.41719 121.48551 14953 ft 340 kts 232°
2026-05-03 21:10 25.40177 121.46581 14510 ft 338 kts 233°
2026-05-03 21:10 25.38647 121.44624 14062 ft 337 kts 233°
2026-05-03 21:10 25.37120 121.42673 13611 ft 336 kts 233°
2026-05-03 21:11 25.35601 121.40733 13161 ft 334 kts 232°
2026-05-03 21:11 25.34089 121.38805 12723 ft 333 kts 232°
2026-05-03 21:11 25.32585 121.36886 12278 ft 331 kts 232°
2026-05-03 21:11 25.31069 121.34952 11810 ft 330 kts 232°
2026-05-03 21:12 25.29579 121.33052 11379 ft 328 kts 232°
2026-05-03 21:12 25.28082 121.31142 10951 ft 328 kts 232°
2026-05-03 21:12 25.26609 121.29269 10733 ft 316 kts 232°
2026-05-03 21:12 25.25211 121.27492 10663 ft 300 kts 232°
2026-05-03 21:13 25.23859 121.25775 10569 ft 286 kts 232°
2026-05-03 21:13 25.22583 121.24155 10453 ft 273 kts 232°
2026-05-03 21:13 25.21371 121.22617 10345 ft 260 kts 232°
2026-05-03 21:13 25.20206 121.21136 10235 ft 247 kts 233°
2026-05-03 21:14 25.19086 121.19711 10139 ft 245 kts 232°
2026-05-03 21:14 25.17955 121.18269 9982 ft 255 kts 232°
2026-05-03 21:14 25.16780 121.16775 9620 ft 256 kts 232°
2026-05-03 21:14 25.15615 121.15297 9286 ft 252 kts 232°
2026-05-03 21:15 25.14485 121.13863 8979 ft 248 kts 232°
2026-05-03 21:15 25.13355 121.12428 8683 ft 246 kts 232°
2026-05-03 21:15 25.12206 121.10967 8380 ft 253 kts 232°
2026-05-03 21:15 25.11049 121.09499 8064 ft 254 kts 232°
2026-05-03 21:16 25.09882 121.08016 7749 ft 255 kts 232°
2026-05-03 21:16 25.08726 121.06548 7444 ft 255 kts 232°
2026-05-03 21:16 25.07550 121.05054 7137 ft 255 kts 232°
2026-05-03 21:16 25.06398 121.03591 6842 ft 253 kts 231°
2026-05-03 21:17 25.05236 121.02117 6539 ft 253 kts 231°
2026-05-03 21:17 25.04468 121.01142 6340 ft 255 kts 231°
2026-05-03 21:17 25.02912 120.99168 5933 ft 256 kts 231°
2026-05-03 21:17 25.01745 120.97688 5631 ft 258 kts 231°
2026-05-03 21:18 25.00561 120.96190 5324 ft 261 kts 229°
2026-05-03 21:18 24.99106 120.94974 4946 ft 265 kts 202°
2026-05-03 21:18 24.97305 120.94611 4597 ft 264 kts 174°
2026-05-03 21:18 24.95548 120.95184 4282 ft 262 kts 146°
2026-05-03 21:19 24.94250 120.96512 4116 ft 247 kts 124°
2026-05-03 21:19 24.93277 120.98012 4097 ft 239 kts 124°
2026-05-03 21:19 24.92386 120.99550 4011 ft 237 kts 109°
2026-05-03 21:19 24.92180 121.01301 3937 ft 225 kts 79°
2026-05-03 21:20 24.92734 121.02928 3647 ft 232 kts 59°
2026-05-03 21:20 24.93700 121.04376 3172 ft 237 kts 52°
2026-05-03 21:20 24.94766 121.05743 2749 ft 237 kts 51°
2026-05-03 21:20 24.95840 121.07096 2517 ft 228 kts 51°
2026-05-03 21:21 24.96856 121.08379 2491 ft 217 kts 51°
2026-05-03 21:21 24.97836 121.09620 2490 ft 211 kts 51°
2026-05-03 21:21 24.98794 121.10834 2501 ft 205 kts 51°
2026-05-03 21:21 24.99678 121.11953 2476 ft 179 kts 52°
2026-05-03 21:22 25.00466 121.12951 2479 ft 166 kts 51°
2026-05-03 21:22 25.01209 121.13892 2488 ft 159 kts 51°
2026-05-03 21:22 25.01895 121.14799 2315 ft 154 kts 53°
2026-05-03 21:22 25.02544 121.15730 1905 ft 153 kts 54°
2026-05-03 21:23 25.03196 121.16647 1496 ft 152 kts 51°
2026-05-03 21:23 25.03935 121.17513 1083 ft 152 kts 49°
2026-05-03 21:23 25.04650 121.18330 785 ft 147 kts 47°
2026-05-03 21:23 25.05327 121.19091 607 ft 132 kts 51°
2026-05-03 21:24 25.05962 121.19877 480 ft 139 kts 51°
2026-05-03 21:24 25.06601 121.20727 357 ft 143 kts 50°
2026-05-03 21:24 25.07271 121.21569 179 ft 146 kts 51°
2026-05-03 21:24 25.07908 121.22395 121 ft 125 kts 50°
2026-05-03 21:25 25.08407 121.23021 121 ft 89 kts 51°
2026-05-03 21:25 25.08714 121.23415 121 ft 46 kts 50°
2026-05-03 21:25 25.08842 121.23577 121 ft 20 kts 50°
2026-05-03 21:25 25.08914 121.23692 121 ft 16 kts 62°
2026-05-03 21:26 25.08953 121.23803 121 ft 14 kts 77°
2026-05-03 21:26 25.08968 121.23895 121 ft 5 kts 81°
2026-05-03 21:26 25.08970 121.23910 121 ft 0 kts 81°
2026-05-03 21:27 25.08973 121.23930 121 ft 4 kts 81°
2026-05-03 21:27 25.08980 121.23978 121 ft 7 kts 81°
2026-05-03 21:28 25.08991 121.24041 121 ft 7 kts 76°
2026-05-03 21:28 25.08975 121.24086 121 ft 6 kts 144°
2026-05-03 21:28 25.08941 121.24114 121 ft 5 kts 140°
2026-05-03 21:28 25.08928 121.24128 121 ft 1 kts 138°
2026-05-03 21:29 25.08922 121.24133 121 ft 0 kts 139°
2026-05-03 21:29 25.08919 121.24136 121 ft 0 kts 142°
2026-05-03 21:29 25.08908 121.24146 121 ft 2 kts 139°
2026-05-03 21:29 25.08902 121.24152 121 ft 0 kts 140°
2026-05-03 21:30 25.08901 121.24152 121 ft 0 kts 140°